sat.trackr.live / text

‹ back to catalog

STARLINK-36579

NORAD 67541 · 2026-014K

PAYLOAD ACTIVE UNKNOWN

§ Identity

Operator
Country
US
Launch date
2026-01-22
Launch site
AFWTR
Launch vehicle
Mass (kg)
RCS (m²)

Purposes: comms

External: N2YO · Heavens-Above · Gunter

§ Orbital elements

Epoch: 2026-09-18T22:25:58.828224Z

Period
93.91 min
Inclination
97.2838°
Eccentricity
0.0001182
Mean motion
15.33444681 rev/d
Perigee alt
464.7 km
Apogee alt
466.4 km
Semi-major
6,843.7 km
B*
6.5236e-4
RAAN
147.4029°
Arg perigee
77.4322°
Mean anomaly
282.7053°
Rev number
3,840

§ Raw data

STARLINK-365791 67541U 26014K   26261.93470866  .00021044  00000+0  65236-3 0  99912 67541  97.2838 147.4029 0001182  77.4322 282.7053 15.33444681 38407

JSON: /api/v1/satellites/67541 · /tle

For live sub-satellite position, see the globe view (requires WebGL).

§ Visibility from observer

Set your observer location to see the next 7 days of passes ≥ 10°. The values pass through the URL so the page stays shareable.

No JS? Fill the form by hand. The geolocation button needs JavaScript.